CAPE
1143 824 549 907 816 329 118 221 236 146 87 32 0 29 118 182 85 8 2 9 0 0 87 778 1922 1256 826 979 780 1111 1283 1679 1237 1024 1200 1592 1483 1455 1349 1456 1531 1521 1190 942 599 819 1298 1779 1700
862 991 1018 807 328 120 119 161 195 90 10 0 17 76 79 138 38 50 3 0 0 0 0 689 2077 1525 1120 1149 904 1666 1403 1276 1153 1179 1344 1426 1495 1286 1469 1362 1586 1564 1533 1061 1074 1052 1763 1815 1720
1498 1239 937 1007 346 139 156 86 66 42 24 9 5 2 15 48 48 0 0 0 18 0 12 925 2384 2164 1235 1389 1500 1716 1320 1120 1112 1360 1407 1421 1262 1187 1404 1413 1509 1453 1375 1800 1233 1773 1934 1586 1385
1404 1214 1300 816 193 226 205 103 56 85 60 32 0 0 0 0 0 0 0 30 272 7 404 1683 2249 1588 1551 1503 1511 1328 1366 1402 1418 1078 1518 1045 1226 1285 1350 1383 1507 1364 1427 1389 1386 1329 1439 1315 1126
922 849 859 312 98 190 168 155 123 143 85 78 1 1 1 0 0 14 50 102 64 103 794 1332 2358 2416 2025 1544 1461 1443 1400 1239 1005 1247 1374 1356 1133 1231 1399 1355 1486 1273 1275 1385 1463 1276 1293 1277 1164
53 171 173 31 6 201 226 142 138 182 66 41 0 0 1 0 14 93 126 138 170 182 647 1150 1846 2100 1910 1479 1465 1406 1323 1128 1091 1156 1072 1402 1056 1249 1531 1340 1402 1142 1419 1296 1079 987 1030 1027 952
172 107 119 27 46 13 168 157 167 176 112 142 0 0 0 0 79 69 181 314 326 129 346 743 916 1182 1575 2156 1697 1583 1433 1115 1087 1031 1127 1305 1302 1038 1307 1457 1415 1506 1371 1267 1020 866 998 993 982
514 614 209 69 37 5 32 52 173 165 177 73 1 0 6 0 93 138 169 273 304 163 207 580 787 897 982 1176 1588 1370 1383 1146 1006 1378 1092 1453 1411 1403 1337 1961 1912 1549 1520 1181 1019 944 898 800 639
17 280 416 213 83 11 0 0 20 179 120 79 137 1 0 10 49 132 85 137 149 70 88 78 233 378 328 537 941 1610 1496 1475 1577 1488 1422 1794 806 983 1080 1575 1724 1548 1238 1210 929 841 720 630 650
341 508 568 254 98 0 8 18 60 127 127 128 0 0 12 4 17 61 57 124 90 17 0 64 85 95 144 969 1194 1226 1214 1134 1043 985 695 995 748 409 1363 934 1808 1665 1270 1199 1083 936 905 793 327
874 666 414 361 200 79 86 55 33 232 147 6 0 0 0 0 22 39 82 82 92 48 0 51 65 158 303 650 903 977 1089 881 714 849 845 754 776 399 531 637 1324 1053 1482 698 842 781 702 609 525
260 214 476 540 494 243 212 70 79 93 130 0 0 0 0 0 8 16 47 62 53 47 102 109 423 598 548 612 704 804 1045 952 617 1008 649 836 514 529 345 584 822 1110 955 1140 371 249 552 340 504
231 21 194 634 654 358 450 141 181 210 8 0 0 0 0 0 0 0 8 6 18 39 87 110 179 296 721 451 728 1055 896 871 657 1123 1085 904 596 423 176 231 328 3 89 594 625 669 274 290 649
214 59 7 23 635 601 346 182 195 41 0 0 0 0 0 0 0 0 0 0 1 15 29 180 158 84 306 987 995 808 1105 524 882 795 1021 804 678 372 89 231 259 164 253 380 369 464 196 173 11
128 42 0 27 133 108 22 19 322 25 0 0 0 0 0 0 0 0 0 0 0 0 41 324 208 177 964 1305 1003 713 1051 967 540 421 841 1586 918 625 346 525 187 72 87 528 385 118 124 0 0
65 82 68 1 94 39 12 101 203 109 0 0 0 0 0 0 0 0 0 0 0 0 75 430 762 1000 1413 1030 806 488 902 749 992 993 1563 1248 1139 958 940 591 288 104 52 395 911 261 40 0 0
30 6 0 9 16 235 214 237 27 400 5 0 0 5 0 0 0 0 0 0 1 58 173 339 766 583 988 735 807 1039 1352 1090 501 998 1772 1563 1154 797 535 907 266 434 531 447 788 466 117 702 712
0 57 38 4 60 298 305 223 4 345 302 12 30 37 50 11 0 0 0 0 48 130 204 267 573 678 828 632 1574 1419 958 1484 759 1301 1533 1541 1087 1029 717 943 612 431 277 684 647 655 1057 858 878
3 66 122 108 100 131 321 466 169 149 346 176 159 97 75 81 54 0 39 65 136 252 277 183 439 897 945 1125 1107 1226 1253 1299 1136 877 1626 835 615 867 441 1019 694 633 562 866 1077 916 804 848 609
0 0 6 110 92 12 461 425 248 300 401 99 411 289 201 143 104 71 94 151 113 252 439 368 686 804 688 595 715 1126 1406 799 502 95 0 700 1203 1306 1013 1048 781 565 999 904 791 650 828 801 1000
0 0 0 0 77 103 434 398 6 0 2 248 301 544 458 368 269 143 145 88 55 186 419 578 1118 847 783 390 778 1171 684 454 169 8 9 25 56 1271 1759 797 988 652 1081 914 988 1028 811 621 776
0 0 0 0 0 3 14 365 151 6 31 12 121 697 709 632 514 319 203 32 9 475 643 506 1251 887 905 943 959 1205 850 424 373 213 0 20 38 38 1616 1179 1046 1137 1283 880 805 1152 937 773 836
0 0 0 0 0 0 0 340 387 73 9 5 30 515 866 715 635 494 290 60 34 703 890 541 1298 1154 964 1469 1199 1264 1185 832 329 123 24 23 130 183 1421 1630 1624 1129 1245 1021 1016 1135 1126 1030 651
0 0 0 0 0 0 1 158 107 135 14 143 211 442 542 845 707 565 394 89 101 665 1098 688 1380 939 934 935 1626 2082 1469 575 309 0 0 0 631 1041 1337 1668 1787 1566 1395 1375 1172 1158 1351 1258 1280
0 0 0 0 0 8 52 15 0 122 119 41 44 31 538 883 797 601 426 182 90 711 1005 940 1006 1389 1402 967 1461 1799 2246 726 383 100 327 404 846 1163 1473 1740 1635 1424 1642 1408 1463 1284 1086 1377 1340
0 0 0 0 0 0 1 14 23 11 16 31 81 247 455 294 929 705 482 327 226 628 840 1507 962 1615 2131 1825 1792 1835 1993 2245 1312 685 744 879 1100 1240 1390 1657 1566 1154 1110 1787 1571 1685 1476 1731 1615
0 0 0 0 0 10 3 0 1 11 7 539 717 1251 1172 1156 929 801 586 484 328 327 724 1189 1593 1519 1922 2343 2395 2408 2392 2410 2543 1813 1101 814 977 1411 1204 1555 1648 1106 1037 1634 1755 1733 1606 1346 1733
0 0 0 0 0 5 76 163 205 104 473 764 985 1544 1610 1533 1031 953 629 388 335 432 489 1246 1550 1917 2088 1819 2049 2830 2770 2702 2541 2246 2309 2340 1818 871 1441 1799 1694 1691 1463 1607 1976 1507 1458 1413 1577
0 0 0 0 0 9 114 184 351 376 674 993 1415 1658 1824 906 801 498 974 928 390 538 732 1317 1807 1854 2075 2372 2022 2122 2877 3047 2765 2876 3038 2961 1911 1326 1825 1756 1773 1871 2014 1727 2016 1519 1487 1505 1495
0 0 0 0 0 0 5 283 0 125 800 1478 1680 1897 1703 778 627 229 311 678 1117 368 86 180 2208 2221 2389 2364 2587 2575 2685 2912 3097 2735 2522 2950 2496 1727 1255 1752 1811 2148 1780 1859 1806 1605 1518 1543 1367
CIN
-37 -22 -36 -6 0 -47 -35 -7 -24 -17 -38 -61 -18 -105 -91 -41 -47 -134 -124 -150 0 0 -28 -2 0 0 0 0 -2 -1 0 0 0 -5 0 0 -1 0 0 0 0 0 0 0 -3 -8 -3 0 0
-42 -3 -3 -6 -45 -19 -21 -7 -5 -32 -61 0 -80 -92 -109 -46 -92 -89 -100 0 0 0 0 -4 -1 0 0 -1 0 0 0 0 0 0 0 -1 -1 0 0 0 0 0 0 0 0 0 0 -2 0
-23 -4 -2 -4 -51 -25 -27 -9 -31 -45 -35 -31 -138 -49 -116 -86 -69 -33 -20 0 -49 0 -42 -3 0 0 0 0 0 0 0 0 0 0 0 -1 -2 0 0 0 0 0 0 0 0 0 -2 -6 -3
-22 -20 -4 -62 -26 -24 -46 -15 -3 -15 -13 -28 -4 0 0 0 0 0 0 -123 -21 -32 -33 0 0 0 0 0 0 0 0 0 0 0 0 -2 0 0 0 0 0 0 0 0 0 0 -1 -8 -7
-79 -95 -51 -40 -14 -22 -29 -33 -42 -45 -33 -35 -18 0 0 0 0 -100 -72 -55 -40 -44 -24 -1 0 0 0 0 0 0 0 0 0 0 0 0 0 -3 0 0 0 0 0 0 0 -2 -8 -17 -17
-291 -223 -186 -25 -5 -14 -23 -29 -22 -31 -65 -106 0 0 0 -4 -80 -43 -54 -29 -36 -51 -18 -2 0 0 0 0 0 0 0 0 0 0 0 0 -2 -2 -1 0 0 0 0 0 0 -8 -13 -23 -39
-99 -188 -175 -54 -11 -7 -10 -9 -31 -33 -30 -42 0 0 0 0 -78 -78 -90 -56 -45 -65 -49 -16 -5 -1 0 0 0 0 0 0 0 -3 0 -1 -3 -1 0 0 0 0 0 0 -2 -13 -16 -28 -38
-44 -80 -219 -225 -41 -1 -14 -5 -14 -41 -23 -108 -12 0 -111 0 -43 -76 -62 -78 -105 -29 -114 -49 -25 -20 -17 -8 0 0 0 0 -1 0 -1 0 -2 0 0 0 0 0 0 0 -3 -14 -28 -35 -34
-230 0 -158 -49 -78 -17 0 0 -19 -54 -69 -61 -85 -142 0 -26 -51 -60 -58 -23 -56 -42 -94 -118 -85 -81 -82 -56 -29 -2 0 0 0 -1 -2 -3 -19 -9 -3 -4 0 0 0 0 -11 -14 -31 -41 -39
-162 -135 -60 -49 -51 0 -78 -109 -107 -43 -45 -54 0 0 -185 -79 -102 -77 -66 -38 -33 -49 0 -104 -106 -117 -102 -34 -35 -36 -26 -26 -25 -22 -49 -36 -36 -75 -12 -22 -1 0 -1 -2 -3 -15 -35 -38 -86
-149 -259 -29 -34 -59 -81 -91 -93 -78 -101 -127 -40 0 0 0 0 -88 -97 -150 -116 -64 -58 0 -85 -109 -85 -86 -77 -80 -61 -53 -56 -63 -52 -55 -49 -67 -68 -90 -67 -8 -20 -3 -42 -28 -42 -58 -72 -107
-446 -351 -29 -31 -28 -72 -22 -18 -34 -82 -187 0 0 0 0 0 -142 -136 -120 -119 -47 -34 -46 -126 -114 -80 -69 -108 -99 -87 -59 -63 -68 -36 -57 -57 -61 -60 -53 -48 -35 -27 -41 -43 -73 -97 -83 -96 -217
-337 -97 -133 -40 -19 -64 -21 -171 -135 -207 -140 0 0 0 0 0 0 0 -97 -84 -70 -102 -97 -158 -128 -135 -83 -113 -96 -57 -85 -61 -60 -42 -61 -53 -57 -51 -115 -103 -83 -137 -156 -67 -73 -67 -88 -62 -88
-139 -316 -159 -246 -34 -48 -80 -105 -163 -272 0 0 0 0 0 0 0 0 0 0 -61 -139 -179 -144 -198 -231 -113 -88 -60 -52 -62 -70 -44 -66 -44 -67 -91 -97 -452 -88 -112 -143 -125 -64 -76 -70 -162 -97 -26
-219 -351 0 -197 -193 -122 -230 -258 -143 -358 0 0 0 0 0 0 0 0 0 0 0 0 -223 -145 -182 -197 -80 -42 -71 -54 -60 -47 -76 -85 -47 -62 -72 -98 -109 -63 -119 -126 -136 -66 -74 -174 -171 0 0
-225 -194 -170 -2 -304 -275 -388 -228 -235 -315 0 0 0 0 0 0 0 0 0 0 0 0 -222 -105 -43 -64 -67 -109 -88 -96 -68 -68 -68 -60 -48 -67 -72 -75 -77 -71 -108 -158 -142 -99 -69 -59 -72 0 0
-180 -146 0 -219 -79 -205 -347 -412 -298 -238 -66 0 0 -158 0 0 0 0 0 0 -19 -158 -123 -98 -73 -101 -123 -128 -118 -101 -59 -77 -95 -71 -45 -91 -61 -126 -165 -97 -113 -117 -103 -91 -49 -64 -98 -74 -67
0 -270 -251 -94 -172 -133 -330 -326 -85 -182 -204 -242 -371 -355 -301 -251 0 0 0 0 -126 -105 -79 -68 -94 -134 -152 -161 -87 -74 -83 -54 -79 -75 -61 -48 -60 -95 -124 -101 -96 -106 -115 -79 -59 -61 -65 -68 -65
-44 -134 -194 -178 -150 -128 -194 -214 -203 -255 -119 -113 -229 -276 -310 -293 -305 0 -237 -181 -135 -95 -107 -123 -127 -151 -165 -134 -109 -67 -50 -33 -63 -80 -73 -113 -214 -130 -134 -84 -89 -101 -98 -60 -48 -53 -52 -73 -90
0 0 -19 -134 -106 -70 -152 -360 -396 -245 -272 -300 -200 -196 -246 -265 -264 -262 -227 -185 -162 -146 -108 -172 -167 -203 -204 -196 -156 -96 -65 -138 -183 -202 0 -121 -92 -75 -99 -78 -90 -126 -60 -60 -53 -56 -56 -66 -70
0 0 0 0 -77 -58 -240 -180 -551 0 -307 -280 -242 -135 -180 -225 -235 -239 -240 -252 -253 -225 -180 -161 -162 -196 -202 -219 -141 -96 -169 -174 -152 -51 -185 -298 -303 -50 -47 -104 -76 -119 -63 -62 -58 -49 -65 -77 -70
0 0 0 0 0 -30 -13 -159 -297 -538 -402 -115 -237 -86 -116 -179 -191 -236 -275 -360 -345 -231 -178 -195 -162 -191 -168 -142 -97 -64 -75 -150 -196 -233 0 -276 -302 -306 -19 -101 -81 -63 -47 -58 -57 -48 -66 -94 -64
0 0 0 0 0 0 0 -104 -197 -330 -289 -331 -188 -88 -68 -124 -199 -246 -277 -341 -398 -231 -174 -222 -152 -159 -122 -88 -75 -72 -72 -131 -252 -260 -339 -321 -203 -169 -21 -40 -45 -54 -45 -50 -60 -45 -55 -90 -94
0 0 0 0 0 0 -33 -170 -163 -212 -178 -160 -147 -93 -41 -85 -146 -235 -261 -371 -376 -270 -189 -230 -171 -165 -146 -127 -74 -52 -49 -213 -225 0 0 0 -140 -39 -31 -45 -38 -44 -34 -46 -65 -60 -47 -61 -54
0 0 0 0 0 -14 -132 -132 0 -174 -155 -173 -120 -85 -44 -74 -134 -219 -269 -370 -428 -325 -231 -225 -198 -174 -154 -151 -100 -50 -49 -214 -269 -330 -253 -208 -135 -63 -40 -47 -48 -51 -40 -39 -52 -55 -60 -49 -54
0 0 0 0 0 0 -7 -80 -74 -191 -147 -88 -91 -57 -70 -138 -109 -205 -275 -325 -339 -324 -280 -168 -228 -156 -131 -114 -97 -91 -62 -57 -129 -206 -186 -155 -155 -82 -78 -58 -69 -87 -74 -40 -51 -47 -57 -46 -46
0 0 0 0 0 -8 -104 -15 -10 -118 -55 -28 -37 -49 -59 -60 -108 -169 -249 -317 -323 -343 -261 -209 -195 -175 -135 -125 -104 -81 -76 -63 -51 -87 -123 -175 -148 -97 -85 -58 -68 -131 -124 -69 -43 -44 -53 -61 -45
0 0 0 0 0 -12 -63 -52 -40 -48 -38 -38 -33 -47 -56 -51 -104 -135 -255 -359 -295 -309 -289 -246 -195 -190 -167 -143 -119 -95 -96 -97 -85 -63 -52 -54 -84 -128 -136 -96 -101 -84 -101 -76 -39 -63 -62 -52 -56
0 0 0 0 0 -36 -33 -44 -45 -75 -42 -34 -39 -58 -88 -292 -539 -646 -512 -428 -590 -258 -215 -224 -212 -190 -178 -145 -153 -107 -87 -89 -93 -60 -48 -46 -88 -148 -112 -117 -131 -98 -54 -46 -34 -57 -45 -44 -35
0 0 0 0 0 0 -36 -35 0 -108 -81 -31 -46 -64 -109 -363 -668 -670 -683 -601 -397 -516 -555 -565 -164 -199 -181 -151 -136 -117 -99 -68 -68 -82 -89 -61 -62 -153 -167 -127 -114 -91 -80 -51 -52 -63 -39 -44 -46
Wind_Speed
11 8 2 1 2 2 4 4 9 7 5 13 14 15 12 10 3 4 8 7 8 11 9 8 14 15 14 13 13 12 13 12 13 12 12 11 11 10 11 10 11 14 15 16 17 14 14 13 13
7 6 1 2 3 3 4 7 8 9 8 7 13 13 9 7 7 11 7 10 7 13 9 8 13 15 15 14 13 12 12 11 11 11 10 10 9 9 11 10 13 14 15 16 16 15 12 12 13
3 5 2 4 3 3 5 8 14 15 12 5 6 8 5 6 9 10 10 10 8 14 12 10 15 15 15 14 13 12 12 10 9 10 9 11 8 8 10 10 13 14 13 15 15 13 12 12 12
4 1 3 4 12 3 8 10 12 14 13 7 12 8 5 3 3 7 13 9 6 14 14 14 16 17 16 13 13 13 11 10 9 8 8 9 7 7 9 10 11 12 14 13 14 13 11 10 10
3 2 4 4 10 8 11 14 16 15 10 14 10 6 4 2 7 13 11 8 8 14 13 13 15 15 15 14 13 12 11 9 7 6 7 6 7 4 10 10 9 11 12 12 13 11 10 7 6
0 1 3 2 9 12 13 13 15 12 14 16 11 10 4 3 1 6 9 7 14 15 13 11 15 14 14 14 12 11 10 8 7 6 6 5 6 5 9 8 9 11 12 12 11 10 9 6 1
7 2 4 4 8 5 13 14 14 16 15 12 20 8 6 6 4 2 5 6 4 15 14 10 9 12 15 12 12 11 10 8 7 7 5 4 5 4 6 9 9 10 11 11 10 9 8 6 5
5 7 7 5 7 5 9 4 17 17 14 22 15 10 12 14 8 5 6 6 6 7 14 12 9 7 6 7 12 11 10 8 8 8 7 6 7 7 6 8 8 10 10 9 8 7 6 5 3
1 4 6 5 8 6 10 11 14 17 15 10 11 14 23 18 13 8 6 3 9 9 13 13 11 8 7 6 8 11 11 10 9 7 8 6 3 4 5 7 11 11 10 9 8 6 5 5 5
5 6 12 12 8 13 14 10 12 12 15 14 20 25 23 20 13 12 8 7 7 11 15 14 13 12 10 9 6 6 6 4 5 5 6 4 4 3 5 6 11 10 10 9 8 7 8 8 2
8 8 7 13 12 16 12 11 12 21 13 19 27 24 21 18 14 15 10 9 12 14 14 15 11 10 11 7 6 3 3 3 4 7 6 5 4 3 5 3 4 4 8 3 5 5 4 3 2
9 29 13 11 10 12 7 10 6 12 14 24 23 23 19 17 16 18 16 12 10 7 13 9 8 7 7 6 6 5 3 4 4 5 7 5 3 3 4 2 3 3 3 4 4 3 5 4 6
4 12 21 2 10 15 8 11 14 22 24 24 23 21 18 15 14 9 8 7 6 7 9 12 9 6 6 6 4 4 5 4 5 4 5 4 3 4 5 2 3 4 2 3 2 1 3 6 13
10 30 31 19 8 10 8 5 14 21 27 25 23 20 18 17 15 9 9 8 8 9 9 11 13 9 8 6 6 4 4 4 3 1 4 6 5 5 4 4 4 3 3 2 4 8 5 4 3
15 15 12 13 15 4 6 6 9 24 23 26 22 19 18 17 15 14 15 14 14 10 12 16 15 11 11 8 6 4 4 3 5 6 5 6 5 4 5 4 4 4 2 3 6 7 4 2 3
8 5 2 8 16 4 11 4 5 12 25 24 23 20 21 21 21 19 20 18 17 16 17 15 15 13 9 7 5 4 3 4 5 5 5 6 6 7 6 3 4 3 3 3 2 4 2 1 1
6 4 16 11 7 7 3 9 10 10 20 23 22 20 20 20 22 22 22 22 21 18 17 14 17 15 11 7 5 4 3 2 4 5 4 6 6 6 5 4 4 4 2 3 4 2 3 1 1
5 8 10 9 5 12 9 8 2 4 12 24 22 20 19 19 23 23 21 14 18 16 19 17 15 15 12 7 5 2 1 3 4 4 4 6 3 6 4 4 4 3 3 3 2 3 1 2 3
8 15 11 12 13 20 13 18 16 23 9 14 19 20 21 22 23 20 18 17 15 14 17 12 12 16 11 9 5 2 3 3 3 2 4 8 7 7 6 4 4 4 4 4 4 3 3 3 3
8 9 8 8 15 3 16 15 21 15 8 9 14 21 22 21 20 21 21 18 14 16 19 13 15 15 12 9 7 3 4 3 3 3 5 2 6 7 7 6 5 5 3 4 3 3 2 3 4
9 6 8 4 1 3 19 9 6 9 6 12 9 20 20 22 21 19 22 15 14 16 18 14 16 17 13 11 7 3 4 3 2 2 1 1 5 5 6 6 6 6 4 4 4 5 6 3 3
6 8 9 9 6 4 5 4 6 8 10 4 5 23 20 20 19 21 20 15 17 14 17 16 17 17 13 13 10 8 5 5 4 4 3 1 6 9 6 7 6 6 5 6 5 5 3 3 3
6 10 7 8 7 5 11 7 3 2 8 11 9 12 22 22 22 23 20 20 17 17 18 17 16 17 15 13 14 9 6 4 3 4 6 6 9 13 10 6 6 6 5 7 7 5 5 4 3
10 10 8 9 2 6 10 8 5 5 10 4 7 7 10 18 20 22 20 20 15 17 17 17 15 16 15 12 9 9 9 8 5 4 5 5 6 6 9 8 6 6 6 6 5 6 7 5 3
8 2 5 8 4 5 4 7 10 15 11 10 9 7 10 17 17 18 20 20 17 20 19 17 17 15 14 13 10 9 7 12 12 9 5 6 5 4 9 10 8 5 5 5 6 6 5 5 3
8 3 4 4 3 7 8 7 3 5 9 2 6 3 3 9 18 19 21 20 19 19 19 18 18 16 14 14 12 10 9 5 8 11 7 7 6 2 5 7 9 8 6 5 6 4 4 5 5
7 6 6 2 5 7 4 2 6 11 7 5 8 7 6 8 15 19 19 18 18 13 18 16 18 16 15 13 13 11 9 8 7 8 9 8 6 8 18 12 10 9 8 7 6 5 6 5 6
6 2 9 6 3 4 3 5 3 6 7 8 8 8 8 10 14 13 9 3 15 10 14 15 18 19 18 16 13 11 12 10 7 6 8 7 7 12 12 11 10 7 7 7 7 5 5 6 5
2 6 5 2 3 3 4 3 1 5 8 8 7 6 8 19 19 16 14 18 20 3 15 15 16 17 16 15 14 12 10 10 8 7 7 7 5 10 12 11 11 10 9 7 7 7 7 7 7
3 2 1 6 9 3 5 6 3 7 10 6 7 5 8 8 9 13 14 20 22 19 7 6 7 16 17 16 14 14 9 7 8 9 8 6 6 9 11 10 10 11 10 9 10 10 8 8 9
Wind_Direction
165 173 219 199 258 132 164 155 169 141 65 65 73 83 87 45 40 159 142 166 157 131 128 141 137 135 135 126 125 122 115 109 103 96 92 86 84 85 82 85 102 99 99 105 112 120 110 112 112
162 188 315 266 223 145 78 123 107 80 117 82 70 88 56 79 73 114 123 182 152 129 143 136 140 138 137 132 137 127 119 111 105 100 96 92 88 79 87 87 103 103 107 109 110 115 114 115 109
129 204 259 210 213 109 134 119 116 120 149 113 98 39 53 96 118 150 139 175 154 141 132 140 139 140 141 145 142 131 121 118 112 105 97 89 85 88 96 99 106 107 113 112 112 109 114 113 113
212 93 269 256 106 99 119 142 131 134 129 103 108 74 75 338 323 126 151 165 155 126 128 140 148 145 146 146 138 136 133 132 122 112 103 99 91 94 99 108 110 112 115 118 119 112 109 113 113
15 339 266 266 114 128 138 149 150 146 121 129 115 102 69 339 315 130 136 154 130 121 131 140 150 150 149 153 152 144 137 136 131 125 110 109 98 88 109 118 120 120 121 122 123 120 119 121 119
94 55 349 127 91 140 146 159 150 136 140 115 102 107 92 98 353 144 147 159 132 131 137 144 145 148 150 156 156 152 148 152 144 136 131 122 112 117 121 129 130 132 128 126 124 125 124 123 114
23 342 237 307 116 111 147 158 145 144 153 144 146 105 124 179 168 174 97 59 66 141 137 143 153 159 161 161 159 161 159 160 158 154 147 145 149 142 131 136 141 133 131 130 133 133 135 153 185
3 299 320 292 100 98 121 169 141 147 158 126 135 146 163 177 168 119 76 35 315 174 147 152 152 155 157 165 171 170 171 176 181 184 175 160 178 174 162 156 153 148 142 139 139 145 162 194 233
68 296 288 158 135 139 112 90 99 125 135 166 173 143 153 151 154 138 107 160 244 181 156 159 158 160 170 169 182 185 184 189 198 192 190 192 192 197 194 190 164 157 160 156 158 161 193 219 247
198 192 205 138 167 117 113 135 146 116 133 93 92 114 138 150 156 146 146 192 204 166 167 162 162 173 181 174 171 178 188 181 185 200 195 192 205 174 161 198 175 165 164 170 166 180 211 220 237
185 253 128 119 127 122 141 171 161 124 125 134 136 138 147 156 164 154 147 212 193 180 171 167 153 185 172 154 169 172 173 190 197 199 196 196 175 191 147 206 180 164 179 181 172 199 228 203 301
188 226 125 125 128 121 158 163 103 131 136 134 136 143 153 165 171 162 182 196 174 143 136 138 126 134 148 150 165 163 189 200 192 196 184 181 177 163 137 148 196 166 182 200 189 200 214 118 355
266 292 11 105 133 131 109 41 105 114 125 130 135 148 162 168 176 170 183 181 149 163 158 171 145 153 155 158 157 166 209 193 191 182 196 164 176 127 121 248 161 186 245 245 208 254 262 199 201
159 90 308 326 73 78 83 58 116 128 130 135 146 159 169 178 179 174 195 195 186 191 185 168 171 176 178 163 163 174 158 193 170 209 205 161 140 137 148 183 182 196 208 282 121 65 281 252 116
61 94 186 300 282 125 123 29 105 141 139 145 156 166 174 180 180 189 199 200 197 199 198 167 176 184 178 171 153 170 160 166 153 197 197 149 135 118 150 169 191 212 192 281 125 169 226 66 27
103 81 139 359 272 289 90 325 267 155 148 153 161 172 178 186 184 194 206 206 204 195 200 167 174 162 152 147 153 173 203 173 146 173 172 155 149 136 133 186 216 197 187 263 169 186 173 129 102
63 77 46 333 271 252 84 231 195 167 164 161 167 177 180 186 190 202 206 207 195 195 177 180 165 165 148 147 158 200 207 223 164 163 172 169 158 155 150 184 229 197 172 258 188 200 139 127 273
190 119 95 285 275 185 207 228 265 203 167 168 172 179 182 186 196 199 205 188 184 176 166 167 158 159 152 150 156 199 242 236 181 182 176 138 106 169 176 185 198 197 190 259 175 164 129 162 223
205 143 170 231 259 213 213 71 47 12 9 175 175 182 186 191 195 197 198 193 186 174 164 164 146 158 149 157 158 166 195 201 185 197 146 159 166 183 183 190 166 195 214 202 186 135 164 272 229
351 307 218 207 256 120 97 101 170 169 183 192 203 186 189 188 193 192 196 191 178 163 169 166 152 159 161 162 166 159 161 102 120 55 358 304 184 177 183 174 176 192 205 210 210 163 149 243 183
287 278 307 245 289 34 116 121 279 200 216 157 210 197 187 188 191 192 185 180 175 164 165 162 154 163 163 162 155 129 90 78 122 93 74 66 343 245 177 172 172 189 189 195 200 185 183 189 243
284 328 339 339 26 227 159 106 241 280 294 295 216 189 190 184 186 183 179 175 174 164 161 160 156 163 162 162 171 171 168 174 199 152 193 39 301 282 191 174 182 186 192 188 198 206 192 144 228
282 289 302 300 289 333 303 96 292 329 265 269 275 181 187 185 183 178 177 176 171 158 160 165 156 163 166 163 171 174 170 160 170 117 173 180 237 245 212 183 182 180 191 195 199 187 207 196 178
280 289 280 258 185 18 270 117 279 202 227 272 269 270 183 176 180 174 174 170 166 161 158 163 155 168 169 172 169 169 171 155 152 193 178 199 210 190 216 190 188 187 201 197 192 192 191 203 211
337 320 326 1 2 182 151 83 218 209 236 245 202 176 203 176 172 166 172 172 173 162 163 165 164 168 173 177 177 186 197 159 180 188 195 189 199 187 195 187 185 191 200 213 181 179 177 189 203
305 38 130 321 321 254 170 174 275 149 185 330 114 31 67 170 172 169 172 169 172 162 166 164 169 169 170 175 188 187 189 194 178 189 191 200 197 167 180 204 195 186 193 204 175 175 189 192 206
304 13 256 324 312 74 79 23 45 159 208 95 55 40 356 312 185 170 168 162 167 154 164 160 169 176 180 176 180 191 196 192 201 187 195 198 152 162 211 205 193 197 190 188 184 188 199 209 207
198 269 358 0 7 339 20 44 166 71 72 81 54 15 322 322 175 155 117 85 156 140 154 152 169 175 182 188 193 185 191 195 198 203 212 207 170 180 186 194 180 186 208 187 178 194 215 201 209
322 2 354 90 114 201 117 285 109 96 79 87 65 359 7 27 58 90 72 44 11 344 162 160 172 179 181 181 188 201 195 191 188 207 215 215 174 173 181 182 183 180 194 197 184 193 209 202 207
58 327 0 114 299 282 140 252 95 31 51 104 101 46 24 88 86 99 81 37 351 307 36 56 186 177 181 185 177 187 186 185 188 207 220 214 195 172 176 183 188 188 192 190 190 198 207 198 201